• In Hungary
  • List of Countries
  • For 7 days
  • Water Temperature
  • Satellite Maps
  • Weather Map
  • News
  • Weather Widgets
  • user-avatar
    Login

    Hourly Weather Nowomlyny

    Today, 25 September, Tuesday

    Time Temperature Precipitation Wind Pressure Humidity
    00:00 +4°C° 0 mm 6 mps 754 mmHg 73%
    01:00 +4°C° 0 mm 6 mps 755 mmHg 74%
    02:00 +4°C° 0 mm 6 mps 755 mmHg 76%
    03:00 +4°C° 0 mm 6 mps 756 mmHg 78%
    04:00 +3°C° 0 mm 5 mps 756 mmHg 79%
    05:00 +4°C° 0 mm 6 mps 757 mmHg 79%
    06:00 +4°C° 0 mm 6 mps 757 mmHg 78%
    07:00 +4°C° 0 mm 6 mps 758 mmHg 78%
    08:00 +7°C° 0 mm 6 mps 758 mmHg 68%
    09:00 +8°C° 0 mm 6 mps 759 mmHg 59%
    10:00 +10°C° 0 mm 6 mps 759 mmHg 50%
    11:00 +11°C° 0 mm 6 mps 760 mmHg 47%
    12:00 +11°C° 0 mm 7 mps 760 mmHg 44%
    13:00 +12°C° 0 mm 7 mps 760 mmHg 42%
    14:00 +11°C° 0 mm 6 mps 760 mmHg 43%
    15:00 +11°C° 0 mm 6 mps 760 mmHg 45%
    16:00 +12°C° 0 mm 5 mps 761 mmHg 46%
    17:00 +11°C° 0 mm 4 mps 761 mmHg 48%
    18:00 +10°C° 0 mm 4 mps 762 mmHg 51%
    19:00 +9°C° 0 mm 3 mps 762 mmHg 53%
    20:00 +9°C° 0 mm 3 mps 762 mmHg 56%
    21:00 +8°C° 0 mm 3 mps 763 mmHg 60%
    22:00 +7°C° 0 mm 2 mps 763 mmHg 64%
    23:00 +7°C° 0 mm 2 mps 763 mmHg 66%

    Tomorrow, 26 September, Wednesday

    Time Temperature Precipitation Wind Pressure Humidity
    00:00 +6°C° 0 mm 2 mps 764 mmHg 68%
    01:00 +6°C° 0 mm 2 mps 764 mmHg 71%
    02:00 +6°C° 0 mm 2 mps 764 mmHg 74%
    03:00 +5°C° 0 mm 2 mps 764 mmHg 77%
    04:00 +5°C° 0 mm 2 mps 763 mmHg 79%
    05:00 +5°C° 0 mm 3 mps 764 mmHg 78%
    06:00 +5°C° 0 mm 3 mps 764 mmHg 77%
    07:00 +5°C° 0 mm 3 mps 764 mmHg 76%
    08:00 +7°C° 0 mm 4 mps 763 mmHg 69%
    09:00 +10°C° 0 mm 4 mps 763 mmHg 61%
    10:00 +12°C° 0 mm 5 mps 763 mmHg 53%
    11:00 +12°C° 0 mm 5 mps 762 mmHg 51%
    12:00 +13°C° 0 mm 6 mps 762 mmHg 48%
    13:00 +14°C° 0 mm 6 mps 761 mmHg 46%
    14:00 +13°C° 0 mm 6 mps 760 mmHg 47%
    15:00 +13°C° 0 mm 5 mps 760 mmHg 48%
    16:00 +13°C° 0 mm 5 mps 759 mmHg 49%
    17:00 +13°C° 0 mm 5 mps 759 mmHg 49%
    18:00 +12°C° 0 mm 4 mps 759 mmHg 49%
    19:00 +12°C° 0 mm 4 mps 759 mmHg 50%
    20:00 +12°C° 0 mm 5 mps 758 mmHg 49%
    21:00 +11°C° 0 mm 6 mps 758 mmHg 48%
    22:00 +11°C° 0 mm 6 mps 758 mmHg 47%
    23:00 +11°C° 0 mm 6 mps 758 mmHg 48%

    Day after tomorrow, 27 September, Thursday

    Time Temperature Precipitation Wind Pressure Humidity
    00:00 +11°C° 0 mm 7 mps 757 mmHg 48%
    01:00 +11°C° 0 mm 7 mps 757 mmHg 48%
    02:00 +11°C° 0 mm 7 mps 757 mmHg 50%
    03:00 +11°C° 0 mm 7 mps 757 mmHg 52%
    04:00 +10°C° 0 mm 7 mps 756 mmHg 54%
    05:00 +10°C° 0 mm 7 mps 756 mmHg 57%
    06:00 +10°C° 0 mm 7 mps 757 mmHg 60%
    07:00 +10°C° 0 mm 7 mps 757 mmHg 62%
    08:00 +13°C° 0 mm 6 mps 757 mmHg 62%
    09:00 +14°C° 0 mm 6 mps 757 mmHg 62%
    10:00 +15°C° 0 mm 6 mps 757 mmHg 61%
    11:00 +17°C° 0 mm 6 mps 757 mmHg 61%
    12:00 +19°C° 0 mm 6 mps 756 mmHg 60%
    13:00 +20°C° 0 mm 6 mps 756 mmHg 60%
    14:00 +20°C° 0 mm 5 mps 756 mmHg 61%
    15:00 +20°C° 0 mm 5 mps 756 mmHg 62%
    16:00 +20°C° 0 mm 4 mps 755 mmHg 64%
    17:00 +18°C° 0 mm 4 mps 755 mmHg 69%
    18:00 +17°C° 0 mm 3 mps 755 mmHg 75%
    19:00 +16°C° 0 mm 3 mps 755 mmHg 80%
    20:00 +14°C° 0 mm 3 mps 755 mmHg 82%
    21:00 +14°C° 0 mm 3 mps 755 mmHg 83%
    22:00 +14°C° 0 mm 3 mps 754 mmHg 84%
    23:00 +13°C° 0 mm 3 mps 754 mmHg 84%

    28 September, Friday

    Time Temperature Precipitation Wind Pressure Humidity
    00:00 +13°C° 0 mm 3 mps 753 mmHg 83%
    01:00 +13°C° 0 mm 3 mps 753 mmHg 83%
    02:00 +13°C° 0 mm 4 mps 752 mmHg 80%
    03:00 +13°C° 0 mm 4 mps 752 mmHg 78%
    04:00 +13°C° 0 mm 4 mps 751 mmHg 75%
    05:00 +13°C° 0 mm 4 mps 751 mmHg 71%
    06:00 +13°C° 0 mm 4 mps 751 mmHg 67%
    07:00 +13°C° 0 mm 5 mps 750 mmHg 63%
    08:00 +14°C° 0 mm 5 mps 750 mmHg 59%
    09:00 +16°C° 0 mm 5 mps 750 mmHg 55%
    10:00 +17°C° 0 mm 5 mps 750 mmHg 50%
    11:00 +19°C° 0 mm 5 mps 750 mmHg 50%
    12:00 +19°C° 0 mm 6 mps 750 mmHg 49%
    13:00 +20°C° 0 mm 6 mps 750 mmHg 49%
    14:00 +19°C° 0 mm 5 mps 750 mmHg 53%
    15:00 +17°C° 0 mm 5 mps 750 mmHg 57%
    16:00 +16°C° 0 mm 5 mps 750 mmHg 61%
    17:00 +15°C° 0 mm 4 mps 751 mmHg 61%
    18:00 +14°C° 0 mm 4 mps 751 mmHg 62%
    19:00 +13°C° 0 mm 3 mps 752 mmHg 62%
    20:00 +12°C° 0 mm 3 mps 752 mmHg 62%
    21:00 +11°C° 0 mm 3 mps 752 mmHg 63%
    22:00 +10°C° 0 mm 2 mps 752 mmHg 63%
    23:00 +10°C° 0 mm 2 mps 753 mmHg 65%

    29 September, Saturday

    Time Temperature Precipitation Wind Pressure Humidity
    00:00 +9°C° 0 mm 2 mps 753 mmHg 66%
    01:00 +9°C° 0 mm 2 mps 753 mmHg 68%
    02:00 +9°C° 0 mm 2 mps 753 mmHg 70%
    03:00 +9°C° 0 mm 2 mps 753 mmHg 71%
    04:00 +8°C° 0 mm 2 mps 754 mmHg 73%
    05:00 +8°C° 0 mm 2 mps 754 mmHg 74%
    06:00 +9°C° 0 mm 2 mps 755 mmHg 76%
    07:00 +9°C° 0 mm 2 mps 755 mmHg 77%
    08:00 +10°C° 0 mm 3 mps 755 mmHg 70%
    09:00 +11°C° 0 mm 3 mps 756 mmHg 63%
    10:00 +12°C° 0 mm 3 mps 756 mmHg 55%
    11:00 +13°C° 0 mm 3 mps 756 mmHg 51%
    12:00 +13°C° 0 mm 3 mps 756 mmHg 47%
    13:00 +14°C° 0 mm 4 mps 756 mmHg 43%
    14:00 +14°C° 0 mm 3 mps 756 mmHg 43%
    15:00 +13°C° 0 mm 3 mps 756 mmHg 43%
    16:00 +13°C° 0 mm 3 mps 756 mmHg 43%
    17:00 +12°C° 0 mm 3 mps 757 mmHg 46%
    18:00 +10°C° 0 mm 2 mps 757 mmHg 49%
    19:00 +9°C° 0 mm 2 mps 757 mmHg 51%
    20:00 +9°C° 0 mm 2 mps 757 mmHg 52%
    21:00 +8°C° 0 mm 2 mps 758 mmHg 52%
    22:00 +8°C° 0 mm 2 mps 758 mmHg 53%
    23:00 +7°C° 0 mm 2 mps 758 mmHg 54%

    30 September, Sunday

    Time Temperature Precipitation Wind Pressure Humidity
    00:00 +7°C° 0 mm 2 mps 758 mmHg 55%
    01:00 +6°C° 0 mm 2 mps 758 mmHg 56%
    02:00 +6°C° 0 mm 2 mps 757 mmHg 58%
    03:00 +6°C° 0 mm 2 mps 757 mmHg 60%
    04:00 +5°C° 0 mm 2 mps 757 mmHg 62%
    05:00 +6°C° 0 mm 2 mps 757 mmHg 63%
    06:00 +6°C° 0 mm 2 mps 757 mmHg 64%
    07:00 +6°C° 0 mm 2 mps 757 mmHg 65%
    08:00 +8°C° 0 mm 2 mps 757 mmHg 60%
    09:00 +10°C° 0 mm 2 mps 756 mmHg 54%
    10:00 +12°C° 0 mm 2 mps 756 mmHg 49%
    11:00 +13°C° 0 mm 2 mps 756 mmHg 45%
    12:00 +14°C° 0 mm 2 mps 755 mmHg 41%
    13:00 +15°C° 0 mm 2 mps 754 mmHg 37%
    14:00 +15°C° 0 mm 2 mps 754 mmHg 38%
    15:00 +15°C° 0 mm 2 mps 753 mmHg 39%
    16:00 +15°C° 0 mm 2 mps 753 mmHg 40%
    17:00 +13°C° 0 mm 1 mps 753 mmHg 43%
    18:00 +12°C° 0 mm 1 mps 753 mmHg 46%
    19:00 +10°C° 0 mm 1 mps 753 mmHg 49%
    20:00 +10°C° 0 mm 1 mps 753 mmHg 51%
    21:00 +10°C° 0 mm 1 mps 753 mmHg 52%
    22:00 +9°C° 0 mm 1 mps 752 mmHg 53%
    23:00 +9°C° 0 mm 1 mps 752 mmHg 55%
    Show more